Regional Weather Roundup
Issued by NWS Sterling, VA

Home | Current Version | Previous Version | Text Only | Print | Product List | Glossary On
Versions: 1 2 3 4 5 6 7 8 9 10 11 12 13 14 15 16 17 18 19 20 21 22 23 24 25 26 27 28 29 30 31 32 33 34 35 36 37 38 39 40 41 42 43 44 45 46 47 48 49
449
ASUS41 KLWX 071310
RWRLWX

REGIONAL WEATHER ROUNDUP
NATIONAL WEATHER SERVICE BALTIMORE MD/WASHINGTON DC
800 AM EST SUN FEB 07 2016

Note: "FAIR" indicates few or no clouds below 12,000 feet
with no significant weather and/or obstructions to visibility.
 TC=TEMPERATURE CELSIUS

 * =Non NWS site. Station does not report precipitation (e.g. rain,
    snow, etc.), thunder, or fog.

DCZ001-MDZ009-015-VAZ040>042-051-053>054-071400-
WASHINGTON METRO

CITY           SKY/WX    TMP DP  RH WIND       PRES   REMARKS
WASHINGTON NAT MOCLDY    32  25  75 N5        30.21S
DULLES         MOCLDY    24  21  88 W3        30.19S
ANDREWS AFB    CLOUDY    28  24  85 NW2       30.18S
FT BELVOIR     FAIR      26  24  90 CALM      30.20S
QUANTICO       FAIR      31  25  78 CALM      30.20S
COLLEGE PARK*  FAIR      27  27 100 CALM      30.19S
LEESBURG*      FAIR      27  23  86 CALM      30.20S
MANASSAS*      CLEAR     21  19  93 CALM      30.20S
GAITHERSBURG*  CLEAR     25  19  80 CALM      30.21S

$$

MDZ006>007-011-014-071400-
BALTIMORE METRO

CITY           SKY/WX    TMP DP  RH WIND       PRES   REMARKS
BWI AIRPORT    CLOUDY    24  22  91 CALM      30.18S
MD SCIENCE CTR   N/A     31  24  75 MISG      30.20R
MARTIN STATE   MOCLDY    27  27 100 CALM      30.22R
ANNAPOLIS      CLOUDY    30  27  88 CALM      30.19S
FORT MEADE*    CLOUDY    23  21  93 CALM      30.21S

$$

MDZ012-015-019>023-071400-
MARYLAND EASTERN SHORE

CITY           SKY/WX    TMP DP  RH WIND       PRES   REMARKS
OCEAN CITY     CLOUDY    31  27  85 N3        30.18S
SALISBURY      CLOUDY    28  25  88 CALM      30.18R
BAY BRIDGE AP*   N/A     30  28  93 CALM      30.20S
EASTON*        PTCLDY    30  30 100 CALM      30.23R

$$

MDZ017>025-071400-
SOUTHERN MARYLAND

CITY           SKY/WX    TMP DP  RH WIND       PRES   REMARKS
PATUXENT RIVER MOCLDY    29  26  89 CALM      30.18S
ST INIGOES     CLOUDY    32  28  85 N3        30.16F
LEONARDTOWN*   CLOUDY    30  28  93 CALM      30.19S

$$

MDZ003>005-071400-
NORTH CENTRAL MARYLAND

CITY           SKY/WX    TMP DP  RH WIND       PRES   REMARKS
FREDERICK*     NOT AVBL
HAGERSTOWN APT CLEAR     25  17  72 E6        30.16F
WESTMINSTER*   CLEAR     27  23  86 CALM      30.17R

$$

MDZ501>502-071400-
WESTERN MARYLAND

CITY           SKY/WX    TMP DP  RH WIND       PRES   REMARKS
OAKLAND*       CLEAR     28  16  59 W5        30.08F
CUMBERLAND*    CLEAR     27  23  86 N3        30.21F

$$

VAZ025>031-071400-
SHENANDOAH VALLEY

CITY           SKY/WX    TMP DP  RH WIND       PRES   REMARKS
WINCHESTER*    FAIR      27  21  80 CALM      30.16F
FRONT ROYAL*   FAIR      25  23  93 CALM      30.16S
LURAY*         FAIR      25  23  93 CALM      30.16S
NEW MARKET*    FAIR      21  20  93 CALM      30.16R
STAUNTON*      FAIR      26  22  85 CALM      30.17R
WAYNESBORO*    FAIR      23  19  85 CALM      30.13F

$$

WVZ021-048>050-054>055-071400-
EASTERN WEST VIRGINIA PANHANDLE

CITY           SKY/WX    TMP DP  RH WIND       PRES   REMARKS
MARTINSBURG    FAIR      20  17  88 SE5       30.16F
PETERSBURG*    FAIR      22  19  91 CALM      30.17F

$$

VAZ036>039-050-071400-
CENTRAL FOOTHILLS

CITY           SKY/WX    TMP DP  RH WIND       PRES   REMARKS
CHARLOTTESVILL FAIR      27  21  78 CALM      30.15S
CULPEPER*      FAIR      24  21  90 CALM      30.18F
ORANGE*        FAIR      30  27  86 CALM      30.17F
GORDONSVILLE*  FAIR      27  25  91 CALM      30.14F
WARRENTON*     FAIR      25  25  97 CALM      30.17S

$$

VAZ055>057-071400-
NORTH AND CENTRAL PIEDMONT

CITY           SKY/WX    TMP DP  RH WIND       PRES   REMARKS
FREDERICKSBRG* FAIR      28  27  94 CALM      30.17F
STAFFORD*      FAIR      26  24  89 CALM      30.22S

$$

NCZ024-NYZ072-PAZ021-071-VAZ022-071-071400-
OTHER REGIONAL OBSERVATIONS

CITY           SKY/WX    TMP DP  RH WIND       PRES   REMARKS
NEW YORK CITY  CLEAR     35  21  56 CALM      30.21S
PHILADELPHIA   PTCLDY    30  24  78 CALM      30.20S
PITTSBURGH     PTCLDY    24  16  71 S5        30.12R
ROANOKE        MOCLDY    29  20  69 N3        30.14F
RICHMOND       MOCLDY    32  27  81 N6        30.14F
RALEIGH        CLOUDY    37  25  61 NE7       30.10S

$$

ANZ530>537-071400-
MARINE OBSERVATIONS

STATION/POSITION TIME  TEMP    WIND        PRES
                       AIR SEA DIR/SP/G
                 (UTC) (F)     (DEG/KT/KT) (MB)
THOMAS PT LIGHT  1200   33     330/  4       N/A
BALT KEY BRIDGE  1200   32     270/  3/  4 1022.3F
COVE POINT       1200   35     350/  3/  5 1022.7R
LEWISETTA        1200   34 42   CALM  /  1 1021.4F
SOLOMONS ISLAND  1200   34 41  340/  4/  4   N/A

$$





USA.gov is the U.S. government's official web portal to all federal, state and local government web resources and services.